Location: Bad Salzschlirf
(50.3750°N, 9.3000°E)
Time: 03:50:33
(UTC+02:00)

ISS - Pass Details

Date: 11 July 2025
Orbit: 413 x 417 km, 51.6° (Epoch: 12 July)

Event Time Altitude Azimuth Distance (km) Brightness Sun altitude
Rises 03:36:06 0° 285° (WNW) 2,358 -0.1 -12.2°
Reaches altitude 10° 03:38:27 10° 271° (W) 1,493 -1.3 -12.0°
Maximum altitude 03:41:12 24° 216° (SW) 913 -2.7 -11.8°
Drops below altitude 10° 03:43:57 10° 160° (SSE) 1,487 -1.3 -11.6°
Sets 03:46:16 0° 146° (SE) 2,347 -0.2 -11.4°
